TimeAEST,TemperatureF,Dew PointF,Humidity,Sea Level PressureIn,VisibilityMPH,Wind Direction,Wind SpeedMPH,Gust SpeedMPH,PrecipitationIn,Events,Conditions,WindDirDegrees,DateUTC
12:00 AM,73,71,89,29.94,,South,15.0,,,,Overcast,190,2013-10-22 14:00:00
12:15 AM,71.6,69.8,94,29.92,3.1,South,15.0,-,N/A,Rain,Rain Showers,190,2013-10-22 14:15:00
12:30 AM,71.6,71.6,100,29.92,3.7,South,12.7,-,N/A,Rain,Rain Showers,190,2013-10-22 14:30:00
1:00 AM,72,71,94,29.93,,South,13.8,,,,,190,2013-10-22 15:00:00
1:00 AM,71.6,71.6,100,29.92,3.1,South,13.8,-,N/A,Rain,Rain Showers,190,2013-10-22 15:00:00
1:15 AM,73.4,69.8,88,29.92,6.2,South,9.2,-,N/A,,Overcast,190,2013-10-22 15:15:00
1:30 AM,73.4,69.8,88,29.92,6.2,South,10.4,-,N/A,Rain,Light Rain Showers,190,2013-10-22 15:30:00
2:00 AM,73.4,71.6,94,29.89,6.2,South,8.1,-,N/A,Rain,Light Rain Showers,190,2013-10-22 16:00:00
2:30 AM,73.4,71.6,94,29.89,6.2,SSE,6.9,-,N/A,Rain,Light Rain Showers,150,2013-10-22 16:30:00
3:00 AM,74,71,87,29.90,,South,8.1,,,,Overcast,190,2013-10-22 17:00:00
3:00 AM,73.4,71.6,94,29.89,6.2,South,8.1,-,N/A,,Mostly Cloudy,190,2013-10-22 17:00:00
3:30 AM,73.4,71.6,94,29.89,6.2,SSE,9.2,-,N/A,Rain,Light Rain Showers,160,2013-10-22 17:30:00
4:00 AM,73,71,92,29.91,,SSE,8.1,,,,,160,2013-10-22 18:00:00
4:00 AM,73.4,71.6,94,29.89,6.2,SSE,8.1,-,N/A,,Mostly Cloudy,160,2013-10-22 18:00:00
4:30 AM,73.4,71.6,94,29.89,6.2,SSE,6.9,-,N/A,,Scattered Clouds,150,2013-10-22 18:30:00
5:00 AM,73.4,69.8,88,29.92,6.2,SSE,6.9,-,N/A,,Scattered Clouds,160,2013-10-22 19:00:00
5:30 AM,73.4,69.8,88,29.92,6.2,South,6.9,-,N/A,,Partly Cloudy,170,2013-10-22 19:30:00
6:00 AM,73,71,89,29.94,19,SE,6.9,,,,Partly Cloudy,140,2013-10-22 20:00:00
6:00 AM,73.4,69.8,88,29.92,6.2,SE,6.9,-,N/A,,Scattered Clouds,140,2013-10-22 20:00:00
6:30 AM,75.2,71.6,89,29.95,6.2,SSE,8.1,-,N/A,,Partly Cloudy,150,2013-10-22 20:30:00
7:00 AM,77,72,79,29.96,,SE,8.1,,,,,140,2013-10-22 21:00:00
7:00 AM,77.0,71.6,83,29.95,6.2,SE,8.1,-,N/A,,Partly Cloudy,140,2013-10-22 21:00:00
7:30 AM,78.8,71.6,78,29.95,6.2,SSE,6.9,-,N/A,,Partly Cloudy,160,2013-10-22 21:30:00
8:00 AM,78.8,71.6,78,29.95,6.2,SSE,9.2,-,N/A,,Partly Cloudy,150,2013-10-22 22:00:00
8:30 AM,80.6,69.8,70,29.95,6.2,SSE,8.1,-,N/A,,Partly Cloudy,160,2013-10-22 22:30:00
9:00 AM,82,70,59,29.97,19,ESE,9.2,,,,Partly Cloudy,120,2013-10-22 23:00:00
9:00 AM,82.4,69.8,66,29.95,6.2,ESE,9.2,-,N/A,,Partly Cloudy,120,2013-10-22 23:00:00
9:30 AM,82.4,69.8,66,29.95,6.2,SE,8.1,-,N/A,,Partly Cloudy,130,2013-10-22 23:30:00
10:00 AM,83,68,51,29.97,,ESE,8.1,,,,,120,2013-10-23 00:00:00
10:00 AM,82.4,68.0,62,29.95,6.2,ESE,8.1,-,N/A,,Partly Cloudy,120,2013-10-23 00:00:00
10:30 AM,84.2,68.0,58,29.95,6.2,ESE,8.1,-,N/A,,Partly Cloudy,120,2013-10-23 00:30:00
11:00 AM,84.2,68.0,58,29.95,6.2,ESE,9.2,-,N/A,,Partly Cloudy,110,2013-10-23 01:00:00
11:30 AM,84.2,69.8,62,29.92,6.2,NE,13.8,-,N/A,,Partly Cloudy,50,2013-10-23 01:30:00
12:00 PM,85,69,51,29.93,19,ENE,15.0,,,,Partly Cloudy,60,2013-10-23 02:00:00
12:00 PM,86.0,69.8,58,29.92,6.2,ENE,15.0,-,N/A,,Partly Cloudy,60,2013-10-23 02:00:00
12:30 PM,86.0,68.0,55,29.92,6.2,ENE,15.0,-,N/A,,Partly Cloudy,60,2013-10-23 02:30:00
1:00 PM,85,66,44,29.91,,ENE,15.0,,,,,60,2013-10-23 03:00:00
1:00 PM,86.0,66.2,51,29.89,6.2,ENE,15.0,-,N/A,,Partly Cloudy,60,2013-10-23 03:00:00
1:30 PM,84.2,69.8,62,29.89,6.2,ENE,16.1,-,N/A,,Partly Cloudy,60,2013-10-23 03:30:00
2:00 PM,86.0,66.2,51,29.86,6.2,ENE,15.0,-,N/A,,Partly Cloudy,60,2013-10-23 04:00:00
2:30 PM,84.2,69.8,62,29.86,6.2,ENE,15.0,-,N/A,,Partly Cloudy,60,2013-10-23 04:30:00
3:00 PM,83,69,55,29.86,19,ENE,16.1,,,,Partly Cloudy,70,2013-10-23 05:00:00
3:00 PM,84.2,69.8,62,29.86,6.2,ENE,16.1,-,N/A,,Partly Cloudy,70,2013-10-23 05:00:00
3:30 PM,84.2,68.0,58,29.86,6.2,ENE,15.0,-,N/A,,Partly Cloudy,70,2013-10-23 05:30:00
4:00 PM,83,68,51,29.86,,ENE,15.0,,,,,70,2013-10-23 06:00:00
4:00 PM,84.2,68.0,58,29.83,6.2,ENE,15.0,-,N/A,,Partly Cloudy,70,2013-10-23 06:00:00
4:30 PM,84.2,68.0,58,29.83,6.2,ENE,13.8,-,N/A,,Partly Cloudy,70,2013-10-23 06:30:00
5:00 PM,82.4,68.0,62,29.83,6.2,East,13.8,-,N/A,,Partly Cloudy,90,2013-10-23 07:00:00
5:30 PM,80.6,68.0,65,29.86,6.2,East,13.8,-,N/A,,Partly Cloudy,80,2013-10-23 07:30:00
6:00 PM,80,68,58,29.86,,East,10.4,,,,,90,2013-10-23 08:00:00
6:00 PM,78.8,68.0,69,29.86,6.2,East,10.4,-,N/A,,Partly Cloudy,90,2013-10-23 08:00:00
6:30 PM,78.8,68.0,69,29.86,6.2,SSE,3.5,-,N/A,,Partly Cloudy,160,2013-10-23 08:30:00
7:00 PM,77,68,66,29.89,,SSE,5.8,,,,,160,2013-10-23 09:00:00
7:00 PM,77.0,68.0,74,29.86,6.2,SSE,5.8,-,N/A,,Partly Cloudy,160,2013-10-23 09:00:00
7:30 PM,75.2,68.0,78,29.89,6.2,SSW,1.2,-,N/A,,Partly Cloudy,210,2013-10-23 09:30:00
8:00 PM,75.2,69.8,83,29.89,6.2,South,4.6,-,N/A,,Partly Cloudy,190,2013-10-23 10:00:00
8:30 PM,75.2,69.8,83,29.89,6.2,South,5.8,-,N/A,,Partly Cloudy,190,2013-10-23 10:30:00
9:00 PM,75,69,75,29.92,,South,3.5,,,,,170,2013-10-23 11:00:00
9:00 PM,75.2,68.0,78,29.92,6.2,South,3.5,-,N/A,,Partly Cloudy,170,2013-10-23 11:00:00
9:30 PM,75.2,69.8,83,29.92,6.2,SSE,5.8,-,N/A,,Partly Cloudy,160,2013-10-23 11:30:00
10:00 PM,74,69,79,29.94,,South,5.8,,,,,170,2013-10-23 12:00:00
10:00 PM,73.4,69.8,88,29.92,6.2,South,5.8,-,N/A,,Partly Cloudy,170,2013-10-23 12:00:00
10:30 PM,73.4,69.8,88,29.92,6.2,SE,5.8,-,N/A,,Partly Cloudy,140,2013-10-23 12:30:00
11:00 PM,71.6,69.8,94,29.92,6.2,West,2.3,-,N/A,,Partly Cloudy,260,2013-10-23 13:00:00
11:30 PM,71.6,69.8,94,29.92,6.2,Calm,Calm,-,N/A,,Scattered Clouds,0,2013-10-23 13:30:00